Location: Browne Barr
(41.2080°N, 111.9480°W)
Time: 05:11:12
(UTC+00:00)

X-37B - Pass Details

Date: 09 August 2021
Orbit: 381 x 393 km, 45.0° (Epoch: 29 August)

Event Time Altitude Azimuth Distance (km) Brightness Sun altitude
Exits shadow 09:55:24 30° 39° (NE) 712 2.5 -24.3°
Drops below altitude 10° 09:57:26 10° 68° (ENE) 1,397 4.2 -24.0°
Sets 09:59:35 0° 76° (ENE) 2,250 5.3 -23.8°
